Location: Pine Mountain Observatory
(43.7910°N, 120.9377°W)
Time: 07:27:43
(UTC-07:00)

Vanguard 1 Rocket - Pass Details

Date: 22 May 2019
Orbit: 652 x 4224 km, 34.3° (Epoch: 24 June)

Event Time Altitude Azimuth Distance (km) Brightness Sun altitude
Exits shadow 02:30:50 23° 147° (SSE) 1,953 8.8 -22.6°
Drops below altitude 10° 02:36:31 10° 101° (E) 3,420 10.5 -22.2°
Sets 02:41:09 0° 89° (E) 5,011 11.5 -21.8°
